This demonstration page uses our WeatherBlox Daily Observations layout. Learn more.

Hourly Observations for September 29, 2020

Temp ( °F °C ) Dew Point ( °F °C ) Humidity (%) Winds ( mph kmh ) Pressure ( in mb ) Visibility ( mi km ) Precip ( " mm )
12:45 am 00:45 Clear with Mist and Fog 52 11.1 51 10.6 97 97 Calm 29.94 1014 2.5 4.02335 0 0
12:53 am 00:53 Clear 54 12.2 53 11.7 97 97 Calm 29.92 1013 10 16.0934 0 0
1:53 am 01:53 Clear 53 11.7 52 11.1 96 96 S 3 6 29.92 1013 10 16.0934 0 0
2:03 am 02:03 Mostly Clear 54 12.2 52 11.1 93 93 SSE 3 6 29.93 1014 10 16.0934 0 0
2:53 am 02:53 Clear 52 11.1 51 10.6 97 97 S 5 7 29.92 1013 10 16.0934 0 0
3:53 am 03:53 Clear with Mist and Fog 50 10 49 9.4 96 96 S 6 9 29.92 1013 6 9.65604 0 0
4:02 am 04:02 Clear with Mist and Fog 49 9.4 48 8.9 97 97 SSW 3 6 29.93 1013 1.75 2.816345 0 0
4:15 am 04:15 Mostly Cloudy with Mist and Fog 49 9.4 48 8.9 97 97 Calm 29.93 1013 0.75 1.207005 0 0
4:26 am 04:26 Mostly Clear with Mist and Fog 50 10 49 9.4 96 96 SW 3 6 29.93 1013 1.25 2.011675 0 0
4:39 am 04:39 Mostly Cloudy with Mist and Fog 48 8.9 48 8.9 100 100 Calm 29.92 1013 0.75 1.207005 0 0
4:53 am 04:53 Mostly Clear with Mist and Fog 49 9.4 47 8.3 93 93 Calm 29.91 1013 1.25 2.011675 0 0
4:55 am 04:55 Mostly Cloudy with Mist and Fog 49 9.4 47 8.3 93 93 Calm 29.93 1013 0.75 1.207005 0 0
5:07 am 05:07 Mostly Cloudy with Fog 49 9.4 48 8.9 97 97 Calm 29.93 1013 0.25 0.402335 0 0
5:15 am 05:15 Mostly Cloudy with Mist and Fog 48 8.9 47 8.3 96 96 Calm 29.93 1014 0.75 1.207005 0 0
5:19 am 05:19 Partly Cloudy with Mist and Fog 48 8.9 48 8.9 100 100 Calm 29.93 1014 1.25 2.011675 0 0
5:27 am 05:27 Mostly Cloudy with Mist and Fog 46 7.8 46 7.8 100 100 Calm 29.93 1014 0.75 1.207005 0 0
5:43 am 05:43 Mostly Cloudy with Fog 48 8.9 48 8.9 100 100 Calm 29.94 1014 0.25 0.402335 0 0
5:50 am 05:50 Mostly Clear with Mist and Fog 46 8 46 8 100 100 Calm 29.94 1014 1.25 2.011675 0 0
5:51 am 05:51 Mostly Clear with Mist and Fog 47 8.3 47 8.3 100 100 Calm 29.93 1013 1.5 2.41401 0 0
5:58 am 05:58 Mostly Cloudy with Mist and Fog 47 8.3 47 8.3 100 100 Calm 29.94 1014 0.75 1.207005 0 0
6:07 am 06:07 Mostly Cloudy with Fog 47 8.3 45 7.2 93 93 Calm 29.94 1014 0.25 0.402335 0 0
6:53 am 06:53 Mostly Cloudy with Fog 47 8.3 46 7.8 97 97 WNW 3 6 29.93 1014 0.5 0.80467 0 0
7:53 am 07:53 Mostly Cloudy with Fog 46 7.8 46 7.8 100 100 NNE 3 6 29.95 1014 0.5 0.80467 0 0
8:45 am 08:45 Mostly Sunny 50 10 50 10 100 100 Calm 29.97 1015 9 14.48406 0 0
8:53 am 08:53 Mostly Sunny 50 10 50 10 100 100 Calm 29.96 1015 9 14.48406 0 0
9:53 am 09:53 Partly Cloudy 56 13.3 51 10.6 84 84 Calm 29.96 1015 8 12.87472 0 0
10:53 am 10:53 Partly Cloudy 58 14.4 52 11.1 81 81 SSE 3 6 29.96 1015 10 16.0934 0 0
11:53 am 11:53 Partly Cloudy 59 15 51 10.6 75 75 VRB 3 6 29.94 1014 10 16.0934 0 0
12:03 pm 12:03 Mostly Cloudy 59 15 52 11.1 78 78 S 6 9 29.96 1014 10 16.0934 0 0
12:37 pm 12:37 Partly Cloudy 59 15 52 11.1 78 78 SE 7 11 29.93 1013 10 16.0934 0 0
12:53 pm 12:53 Mostly Sunny 59 15 53 11.7 81 81 SSE 7 11 29.92 1013 10 16.0934 0 0
1:53 pm 13:53 Partly Cloudy 59 15 52 11.1 78 78 SSE 8 13 29.92 1013 10 16.0934 0 0
2:53 pm 14:53 Mostly Sunny 60 15.6 53 11.7 78 78 S 7 11 29.88 1012 10 16.0934 0 0
3:53 pm 15:53 Partly Cloudy 61 16.1 49 9.4 65 65 WNW 7 11 29.85 1011 10 16.0934 0 0
4:53 pm 16:53 Mostly Sunny 63 17.2 48 8.9 58 58 S 3 6 29.84 1010 10 16.0934 0 0
5:53 pm 17:53 Mostly Cloudy 61 16.1 50 10 67 67 SSE 6 9 29.84 1011 10 16.0934 0 0
6:53 pm 18:53 Mostly Cloudy 58 14.4 50 10 75 75 S 5 7 29.84 1011 10 16.0934 0 0
6:57 pm 18:57 Cloudy with Light Thunderstorms 58 14.4 51 10.6 78 78 W 13 20 29.86 1011 10 16.0934 0.001 0.001
7:53 pm 19:53 Mostly Cloudy with Light Rain 53 11.7 50 10 89 89 ESE 5 7 29.86 1011 10 16.0934 0.06 1.524
8:53 pm 20:53 Cloudy 52 11.1 50 10 93 93 Calm 29.87 1012 10 16.0934 0.001 0.001
9:53 pm 21:53 Cloudy 53 11.7 51 10.6 93 93 Calm 29.88 1012 10 16.0934 0 0
10:53 pm 22:53 Cloudy 52 11.1 50 10 93 93 S 6 9 29.87 1012 10 16.0934 0 0
11:53 pm 23:53 Clear 50 10 48 8.9 93 93 S 6 9 29.87 1012 10 16.0934 0 0

Powered by AerisWeather